TUI3BH EDDL-GVBA

Flight info

Callsign TUI3BH
Flight time N/A
Altitude 32000
Route NETEX6T NETEX DCT RASCA DCT FAMEN/N0454F330 DCT ESTOC UT300 PON UN872 ERIGA DCT FUJTI DCT PEPET DCT BAKUP DCT BATAX DCT INBOM DCT CAS/N0458F350 DCT EKMAR DCT LUVUP DCT BEXAL DCT SAMAR DCT YUSME DCT LIMAL/N0463F360 N873 IPERA DCT DIMKI DIMKI1P
Aircraft B738/M-SDE2E3FGHIRWXY/LB1

Departure

Time N/A
Airport Düsseldorf Airport (EDDL)

Arrival

Time 2026-05-05 20:10
Airport Aristides Pereira International Airport (GVBA)
Time Latitude Longitude Altitude Speed Heading
2026-05-05 19:38 17.86963 -21.82479 35005 ft 401 kts 212°
2026-05-05 19:39 17.81979 -21.85010 34993 ft 400 kts 212°
2026-05-05 19:39 17.79460 -21.86291 34623 ft 406 kts 212°
2026-05-05 19:39 17.76926 -21.87578 34072 ft 405 kts 212°
2026-05-05 19:39 17.74384 -21.88867 33347 ft 405 kts 212°
2026-05-05 19:40 17.71847 -21.90154 32611 ft 406 kts 211°
2026-05-05 19:40 17.69297 -21.91447 31871 ft 406 kts 211°
2026-05-05 19:40 17.66749 -21.92738 31222 ft 406 kts 211°
2026-05-05 19:40 17.64197 -21.94025 30603 ft 410 kts 210°
2026-05-05 19:41 17.61576 -21.95267 29648 ft 417 kts 208°
2026-05-05 19:41 17.58898 -21.96477 28794 ft 420 kts 208°
2026-05-05 19:41 17.56201 -21.97675 28108 ft 419 kts 207°
2026-05-05 19:41 17.53532 -21.98858 27556 ft 415 kts 207°
2026-05-05 19:42 17.50888 -22.00035 27010 ft 411 kts 207°
2026-05-05 19:42 17.48266 -22.01211 26415 ft 409 kts 207°
2026-05-05 19:42 17.45658 -22.02386 25807 ft 408 kts 207°
2026-05-05 19:42 17.43057 -22.03562 25250 ft 406 kts 207°
2026-05-05 19:43 17.40507 -22.04716 24720 ft 404 kts 207°
2026-05-05 19:43 17.37937 -22.05879 24192 ft 402 kts 207°
2026-05-05 19:43 17.35372 -22.07041 23669 ft 400 kts 207°
2026-05-05 19:43 17.32817 -22.08197 23067 ft 399 kts 206°
2026-05-05 19:44 17.30283 -22.09343 22527 ft 395 kts 206°
2026-05-05 19:44 17.27767 -22.10480 22001 ft 392 kts 206°
2026-05-05 19:44 17.25275 -22.11607 21493 ft 389 kts 206°
2026-05-05 19:44 17.22799 -22.12725 20983 ft 385 kts 206°
2026-05-05 19:45 17.20346 -22.13833 20487 ft 383 kts 206°
2026-05-05 19:45 17.17910 -22.14934 19988 ft 380 kts 206°
2026-05-05 19:45 17.15520 -22.16013 19496 ft 378 kts 206°
2026-05-05 19:45 17.13108 -22.17102 18987 ft 376 kts 205°
2026-05-05 19:46 17.10704 -22.18188 18493 ft 375 kts 205°
2026-05-05 19:46 17.08312 -22.19267 17952 ft 373 kts 205°
2026-05-05 19:46 17.05941 -22.20336 17438 ft 370 kts 205°
2026-05-05 19:46 17.03584 -22.21399 16939 ft 367 kts 205°
2026-05-05 19:47 17.01245 -22.22453 16454 ft 365 kts 205°
2026-05-05 19:47 16.98928 -22.23497 15978 ft 362 kts 204°
2026-05-05 19:47 16.96621 -22.24537 15503 ft 360 kts 204°
2026-05-05 19:47 16.94327 -22.25570 15020 ft 358 kts 204°
2026-05-05 19:48 16.92046 -22.26597 14534 ft 356 kts 204°
2026-05-05 19:48 16.89793 -22.27612 14057 ft 355 kts 204°
2026-05-05 19:48 16.87530 -22.28630 13550 ft 354 kts 204°
2026-05-05 19:48 16.85273 -22.29645 13059 ft 352 kts 204°
2026-05-05 19:49 16.83029 -22.30655 12574 ft 349 kts 204°
2026-05-05 19:49 16.81552 -22.31319 12259 ft 348 kts 204°
2026-05-05 19:49 16.78580 -22.32655 11612 ft 346 kts 204°
2026-05-05 19:49 16.76373 -22.33646 11132 ft 344 kts 204°
2026-05-05 19:50 16.74186 -22.34629 10843 ft 337 kts 204°
2026-05-05 19:50 16.72083 -22.35574 10649 ft 328 kts 204°
2026-05-05 19:50 16.70015 -22.36502 10494 ft 318 kts 203°
2026-05-05 19:50 16.68015 -22.37400 10361 ft 308 kts 204°
2026-05-05 19:51 16.66069 -22.38274 10223 ft 299 kts 204°
2026-05-05 19:51 16.64186 -22.39119 10101 ft 291 kts 204°
2026-05-05 19:51 16.62349 -22.39943 9930 ft 284 kts 204°
2026-05-05 19:51 16.60552 -22.40749 9635 ft 282 kts 204°
2026-05-05 19:52 16.58768 -22.41550 9342 ft 281 kts 204°
2026-05-05 19:52 16.56971 -22.42356 9022 ft 281 kts 204°
2026-05-05 19:52 16.55181 -22.43158 8714 ft 280 kts 204°
2026-05-05 19:52 16.53385 -22.43964 8383 ft 280 kts 204°
2026-05-05 19:53 16.51596 -22.44766 8069 ft 280 kts 204°
2026-05-05 19:53 16.49807 -22.45567 7754 ft 280 kts 204°
2026-05-05 19:53 16.48017 -22.46369 7438 ft 280 kts 204°
2026-05-05 19:53 16.46228 -22.47171 7122 ft 280 kts 203°
2026-05-05 19:54 16.44438 -22.47972 6796 ft 281 kts 203°
2026-05-05 19:54 16.42664 -22.48766 6482 ft 282 kts 203°
2026-05-05 19:54 16.40860 -22.49574 6143 ft 282 kts 203°
2026-05-05 19:54 16.39051 -22.50384 5830 ft 282 kts 203°
2026-05-05 19:55 16.37243 -22.51193 5527 ft 281 kts 203°
2026-05-05 19:55 16.35443 -22.51999 5228 ft 281 kts 203°
2026-05-05 19:55 16.33668 -22.52793 4938 ft 280 kts 203°
2026-05-05 19:55 16.31879 -22.53593 4641 ft 279 kts 203°
2026-05-05 19:56 16.30094 -22.54391 4342 ft 278 kts 203°
2026-05-05 19:56 16.28320 -22.55187 4050 ft 275 kts 205°
2026-05-05 19:56 16.26718 -22.56184 4000 ft 264 kts 216°
2026-05-05 19:56 16.25266 -22.57328 3935 ft 259 kts 218°
2026-05-05 19:57 16.23847 -22.58488 3893 ft 259 kts 218°
2026-05-05 19:57 16.22905 -22.59258 3855 ft 261 kts 219°
2026-05-05 19:57 16.20995 -22.60808 3800 ft 265 kts 218°
2026-05-05 19:57 16.19529 -22.61988 3756 ft 267 kts 218°
2026-05-05 19:58 16.18053 -22.63168 3712 ft 268 kts 218°
2026-05-05 19:58 16.16570 -22.64349 3666 ft 268 kts 218°
2026-05-05 19:58 16.15085 -22.65527 3617 ft 268 kts 218°
2026-05-05 19:58 16.13607 -22.66697 3568 ft 264 kts 218°
2026-05-05 19:59 16.12193 -22.67816 3510 ft 254 kts 217°
2026-05-05 19:59 16.10809 -22.68909 3459 ft 243 kts 217°
2026-05-05 19:59 16.09498 -22.69945 3466 ft 232 kts 217°
2026-05-05 19:59 16.08212 -22.70959 3450 ft 237 kts 218°
2026-05-05 20:00 16.06872 -22.72017 3420 ft 244 kts 218°
2026-05-05 20:00 16.05502 -22.73097 3354 ft 247 kts 218°
2026-05-05 20:00 16.04145 -22.74167 3335 ft 242 kts 217°
2026-05-05 20:00 16.02844 -22.75192 3262 ft 225 kts 218°
2026-05-05 20:01 16.01662 -22.76124 3216 ft 208 kts 217°
2026-05-05 20:01 16.00549 -22.77000 3182 ft 193 kts 217°
2026-05-05 20:01 15.99510 -22.77819 3153 ft 184 kts 218°
2026-05-05 20:01 15.98483 -22.78629 3165 ft 185 kts 217°
2026-05-05 20:02 15.97457 -22.79438 3137 ft 189 kts 218°
2026-05-05 20:02 15.96400 -22.80270 3121 ft 192 kts 218°
2026-05-05 20:02 15.95329 -22.81115 3084 ft 192 kts 217°
2026-05-05 20:02 15.94273 -22.81945 3036 ft 188 kts 217°
2026-05-05 20:03 15.93240 -22.82759 3003 ft 184 kts 217°
2026-05-05 20:03 15.92191 -22.83584 3028 ft 200 kts 217°
2026-05-05 20:03 15.91033 -22.84506 2981 ft 214 kts 222°
2026-05-05 20:03 15.90255 -22.85784 2897 ft 210 kts 262°
2026-05-05 20:04 15.90417 -22.87244 2898 ft 203 kts 288°
2026-05-05 20:04 15.90812 -22.88657 2870 ft 204 kts 288°
2026-05-05 20:04 15.91219 -22.90075 2847 ft 205 kts 288°
2026-05-05 20:04 15.91624 -22.91490 2789 ft 203 kts 290°
2026-05-05 20:05 15.92034 -22.92897 2772 ft 203 kts 290°
2026-05-05 20:05 15.92626 -22.94137 2691 ft 190 kts 320°
2026-05-05 20:05 15.93811 -22.94585 2573 ft 184 kts
2026-05-05 20:05 15.95098 -22.94367 2571 ft 190 kts 11°
2026-05-05 20:06 15.96392 -22.94121 2525 ft 187 kts 13°
2026-05-05 20:06 15.97633 -22.93809 2521 ft 179 kts 16°
2026-05-05 20:06 15.98819 -22.93466 2516 ft 178 kts 17°
2026-05-05 20:06 16.00026 -22.93101 2528 ft 183 kts 17°
2026-05-05 20:07 16.01250 -22.92725 2461 ft 184 kts 17°
2026-05-05 20:07 16.02478 -22.92344 2231 ft 183 kts 18°
2026-05-05 20:07 16.03682 -22.91971 1979 ft 178 kts 16°
2026-05-05 20:07 16.04832 -22.91614 1729 ft 163 kts 17°
2026-05-05 20:08 16.05877 -22.91289 1508 ft 148 kts 15°
2026-05-05 20:08 16.06820 -22.90997 1315 ft 141 kts 15°
2026-05-05 20:08 16.07755 -22.90705 1161 ft 139 kts 16°
2026-05-05 20:08 16.08692 -22.90414 938 ft 144 kts 14°
2026-05-05 20:09 16.09679 -22.90128 737 ft 150 kts 15°
2026-05-05 20:09 16.10682 -22.89814 493 ft 151 kts 15°
2026-05-05 20:09 16.11667 -22.89505 305 ft 144 kts 16°
2026-05-05 20:09 16.12609 -22.89209 131 ft 139 kts 16°
2026-05-05 20:10 16.13496 -22.88929 57 ft 124 kts 15°
2026-05-05 20:10 16.14182 -22.88722 58 ft 75 kts 17°
2026-05-05 20:10 16.14506 -22.88629 61 ft 20 kts 355°
2026-05-05 20:10 16.14620 -22.88618 56 ft 13 kts 47°
2026-05-05 20:11 16.14609 -22.88580 58 ft 4 kts 162°
2026-05-05 20:11 16.14566 -22.88596 56 ft 10 kts 203°
2026-05-05 20:11 16.14466 -22.88632 58 ft 20 kts 196°
2026-05-05 20:11 16.14328 -22.88674 56 ft 21 kts 196°
2026-05-05 20:12 16.14191 -22.88716 58 ft 20 kts 196°
2026-05-05 20:12 16.14060 -22.88759 58 ft 20 kts 197°
2026-05-05 20:12 16.13931 -22.88798 62 ft 19 kts 196°
2026-05-05 20:12 16.13807 -22.88838 60 ft 18 kts 197°
2026-05-05 20:13 16.13673 -22.88880 56 ft 23 kts 196°
2026-05-05 20:13 16.13605 -22.88985 60 ft 8 kts 245°
2026-05-05 20:13 16.13562 -22.89016 56 ft 8 kts 203°
2026-05-05 20:13 16.13541 -22.89047 59 ft 6 kts 273°
2026-05-05 20:14 16.13550 -22.89087 52 ft 3 kts 285°
2026-05-05 20:14 16.13555 -22.89104 55 ft 0 kts 286°
2026-05-05 20:14 16.13555 -22.89105 55 ft 0 kts 286°